Location: Makanda
(37.6176°N, 89.2090°W)
Time: 15:10:37
(UTC+00:00)

Timation 2 Rocket - Pass Details

Date: 23 September 2019
Orbit: 908 x 1074 km, 70.0° (Epoch: 21 October)

Event Time Altitude Azimuth Distance (km) Brightness Sun altitude
Rises 10:15:13 0° 326° (NW) 3,556 6.8 -18.5°
Reaches altitude 10° 10:17:57 10° 317° (NW) 2,601 6.0 -17.9°
Maximum altitude 10:23:12 33° 256° (WSW) 1,489 4.4 -16.9°
Drops below altitude 10° 10:28:25 10° 194° (SSW) 2,592 6.0 -15.9°
Sets 10:31:10 0° 185° (S) 3,543 6.8 -15.4°
